Location: Fauquembergues
(50.6005°N, 2.0987°E)
Time: 21:51:00
(UTC+00:00)

Spot 4 Rocket - Visible Passes

Search period start: 22 October 2020 00:00
Search period end: 01 November 2020 00:00
Orbit: 775 x 782 km, 98.7° (Epoch: 21 October)

Date Brightness Start Highest point End Pass type
(mag) Time Alt. Az. Time Alt. Az. Time Alt. Az.
22 Oct 4.8 03:02:13 10° NNE 03:06:08 48° NE 03:06:08 48° NE visible
22 Oct 5.1 04:42:09 10° N 04:46:12 24° WNW 04:46:37 24° WNW visible
23 Oct 5.8 02:29:41 10° NNE 02:32:49 28° ENE 02:32:49 28° ENE visible
23 Oct 4.5 04:08:54 10° N 04:13:17 40° NW 04:13:17 40° NW visible
24 Oct 6.6 01:57:38 10° NE 01:59:29 16° ENE 01:59:29 16° ENE visible
24 Oct 4.4 03:35:54 10° NNE 03:39:58 54° N 03:39:58 54° N visible
24 Oct 5.7 05:16:44 10° NNW 05:19:26 14° NW 05:20:26 14° WNW visible
25 Oct 5.0 03:03:06 10° NNE 03:06:39 42° NE 03:06:39 42° NE visible
25 Oct 5.2 04:43:03 10° N 04:47:05 24° WNW 04:47:07 24° WNW visible
26 Oct 6.0 02:30:35 10° NNE 02:33:19 26° NE 02:33:19 26° NE visible
26 Oct 4.7 04:09:48 10° N 04:13:48 37° NW 04:13:48 37° NW visible
27 Oct 6.7 01:58:30 10° NE 02:00:01 15° ENE 02:00:01 15° ENE visible
27 Oct 4.6 03:36:48 10° NNE 03:40:29 47° N 03:40:29 47° N visible
27 Oct 5.7 05:17:40 10° NNW 05:20:19 14° NW 05:20:57 14° WNW visible
28 Oct 5.3 03:04:00 10° NNE 03:07:09 37° NE 03:07:09 37° NE visible
28 Oct 5.2 04:43:57 10° N 04:47:38 23° NW 04:47:38 23° NW visible
29 Oct 6.1 02:31:27 10° NNE 02:33:50 24° NE 02:33:50 24° NE visible
29 Oct 4.8 04:10:42 10° N 04:14:19 35° NW 04:14:19 35° NW visible
30 Oct 6.8 01:59:22 10° NE 02:00:31 14° NE 02:00:31 14° NE visible
30 Oct 4.9 03:37:41 10° NNE 03:40:59 40° N 03:40:59 40° N visible
30 Oct 5.7 05:18:35 10° NNW 05:21:12 14° NW 05:21:28 14° NW visible
31 Oct 5.5 03:04:53 10° NNE 03:07:40 32° NNE 03:07:40 32° NNE visible
31 Oct 5.3 04:44:52 10° N 04:48:08 23° NW 04:48:08 23° NW visible
